KF4VX-15 Weather Reports


time (UTC)temp
F
wind
direction
speed
knots
gust
knots
rain 1hr
in
rain 24hr
in
rain mn
in
humidity
%
barometer
mb
20260906103028 68 52 0.0 0.9 0.00 0.00 0.00 95 1010.8
20260906101527 69 52 0.0 0.9 0.00 0.00 0.00 95 1010.9
20260906100025 69 52 0.0 0.9 0.00 0.00 0.00 95 1010.8
20260906094535 69 52 0.0 0.9 0.00 0.00 0.00 94 1010.7
20260906093034 69 52 0.0 0.9 0.00 0.00 0.00 94 1010.6
20260906091522 69 52 0.0 3.5 0.00 0.00 0.00 94 1010.5
20260906090022 69 52 0.0 2.6 0.00 0.00 0.00 93 1010.4
20260906084532 70 52 0.9 2.6 0.00 0.00 0.00 93 1010.4
20260906083026 70 52 0.9 4.3 0.00 0.00 0.00 93 1010.5
20260906081521 70 52 0.9 4.3 0.00 0.00 0.00 93 1010.5
20260906080028 70 52 0.0 6.1 0.00 0.00 0.00 94 1010.4
20260906074520 70 52 2.6 7.0 0.00 0.00 0.00 94 1010.3
20260906073019 70 52 0.9 3.5 0.00 0.00 0.00 94 1010.2
20260906071517 70 52 0.0 2.6 0.00 0.00 0.00 94 1010.2
20260906070015 70 52 0.9 3.5 0.00 0.00 0.00 94 1010.4
20260906064515 69 52 0.0 0.0 0.00 0.00 0.00 94 1010.4
20260906063014 70 52 0.0 0.0 0.00 0.00 0.00 94 1010.6
20260906061512 70 52 0.0 0.0 0.00 0.00 0.00 94 1010.6
20260906060008 70 52 0.0 4.3 0.00 0.00 0.00 94 1011.0
20260906054507 70 52 0.0 2.6 0.00 0.00 0.00 93 1011.2
20260906053005 71 52 0.0 1.7 0.00 0.00 0.00 93 1011.3
20260906051507 71 52 0.0 3.5 0.00 0.00 0.00 93 1011.4
20260906050002 71 52 0.9 7.0 0.00 0.00 0.00 93 1011.4
20260906044559 70 52 0.9 3.5 0.00 0.00 0.00 94 1011.6
20260906043100 70 52 0.0 2.6 0.00 0.00 0.00 93 1011.3
20260906041557 71 52 0.0 0.9 0.00 0.00 0.00 93 1011.4
20260906040052 71 52 0.0 3.5 0.00 0.00 0.00 92 1011.5
20260906034554 72 52 0.0 1.7 0.00 0.00 0.00 92 1011.8
20260906033052 72 52 1.7 7.8 0.00 0.00 0.00 92 1011.5
20260906031550 72 52 1.7 6.1 0.00 0.00 0.00 93 1011.6
20260906030050 71 52 0.0 0.0 0.00 0.00 0.00 93 1011.5
20260906024601 71 52 0.0 0.0 0.00 0.00 0.00 93 1011.5
20260906023049 71 52 0.0 0.0 0.00 0.00 0.00 91 1011.4
20260906021549 72 52 0.0 0.0 0.00 0.00 0.00 92 1011.7
20260906020050 71 52 0.0 0.0 0.00 0.00 0.00 91 1011.8
20260906014600 72 52 0.0 0.9 0.00 0.00 0.00 91 1011.5
20260906013047 72 52 0.0 0.0 0.00 0.00 0.00 91 1011.2
20260906011547 73 52 0.0 0.0 0.00 0.00 0.00 90 1010.9
20260906010046 73 52 0.0 0.0 0.00 0.00 0.00 90 1010.8
20260906004546 74 52 0.0 0.0 0.00 0.00 0.00 89 1010.8
20260906003100 74 52 0.0 0.0 0.00 0.00 0.00 88 1010.4
20260906001545 75 52 0.0 2.6 0.00 0.00 0.00 87 1010.2
20260906000044 75 52 0.0 0.9 0.00 0.00 0.00 85 1010.2
20260905234544 76 52 0.0 0.0 0.00 0.00 0.00 82 1010.1
20260905233044 77 52 0.0 3.5 0.00 0.00 0.00 80 1010.2
20260905231544 78 52 0.0 6.1 0.00 0.00 0.00 78 1010.2
20260905230042 79 52 0.9 4.3 0.00 0.00 0.00 76 1010.2
20260905224542 80 52 0.0 3.5 0.00 0.00 0.00 75 1009.8
20260905223041 81 52 0.0 4.3 0.00 0.00 0.00 75 1009.8
20260905221544 80 52 0.0 3.5 0.00 0.00 0.00 77 1010.1
20260905220044 79 52 0.0 7.0 0.00 0.00 0.00 79 1010.1
20260905214539 79 52 0.0 3.5 0.00 0.00 0.00 79 1010.2
20260905213041 80 52 0.0 5.2 0.00 0.00 0.00 80 1009.8
20260905211542 80 52 0.0 5.2 0.00 0.00 0.00 78 1009.9
20260905210036 80 52 0.9 8.7 0.00 0.00 0.00 78 1010.4
20260905204535 81 52 0.9 4.3 0.00 0.00 0.00 75 1010.4
20260905203035 82 52 0.9 5.2 0.00 0.00 0.00 73 1010.7
20260905201538 81 52 2.6 8.7 0.00 0.00 0.00 72 1011.0
20260905200043 80 51 0.9 9.6 0.00 0.00 0.00 71 1010.9
20260905194539 80 55 3.5 9.6 0.00 0.00 0.00 73 1011.9
20260905193033 78 59 0.9 6.1 0.00 0.00 0.00 77 1011.0
20260905191533 76 59 2.6 8.7 0.00 0.00 0.00 78 1010.9
20260905190035 82 59 2.6 10.4 0.00 0.00 0.00 64 1011.3
20260905184534 87 60 5.2 16.5 0.00 0.00 0.00 55 1011.0
20260905183033 92 41 0.0 0.0 0.00 0.00 0.00 57 1010.5
20260905181535 92 41 0.0 7.8 0.00 0.00 0.00 53 1010.5
20260905180027 92 41 0.0 4.3 0.00 0.00 0.00 53 1010.5
20260905174525 92 41 0.9 4.3 0.00 0.00 0.00 59 1010.8
20260905173023 91 41 2.6 6.1 0.00 0.00 0.00 57 1011.0
20260905171526 90 41 0.9 2.6 0.00 0.00 0.00 57 1010.9
20260905170020 90 41 1.7 4.3 0.00 0.00 0.00 59 1011.0
20260905164518 90 41 1.7 4.3 0.00 0.00 0.00 59 1011.4
20260905163015 90 41 0.9 4.3 0.00 0.00 0.00 64 1011.9
20260905161514 91 41 0.9 4.3 0.00 0.00 0.00 63 1011.9
20260905160030 91 41 0.0 1.7 0.00 0.00 0.00 65 1012.0
20260905154506 88 41 0.0 1.7 0.00 0.00 0.00 66 1012.2
20260905153003 87 41 0.0 2.6 0.00 0.00 0.00 68 1012.5
20260905151600 86 41 0.9 5.2 0.00 0.00 0.00 73 1012.4
20260905150100 85 41 0.0 4.3 0.00 0.00 0.00 74 1012.4
20260905144555 83 41 0.9 3.5 0.00 0.00 0.00 77 1012.6
20260905143055 82 41 0.0 3.5 0.00 0.00 0.00 79 1012.7
20260905141547 81 41 0.0 2.6 0.00 0.00 0.00 81 1012.7
20260905140042 80 41 0.9 5.2 0.00 0.00 0.00 81 1013.0
20260905134543 79 41 0.0 3.5 0.00 0.00 0.00 82 1013.1
20260905133039 77 41 0.0 2.6 0.00 0.00 0.00 86 1013.2
20260905131545 76 41 2.6 7.0 0.00 0.00 0.00 87 1013.4
20260905130028 74 41 1.7 7.0 0.00 0.00 0.00 90 1013.3
20260905124532 73 41 0.9 4.3 0.00 0.00 0.00 92 1013.3
20260905123024 73 41 0.9 4.3 0.00 0.00 0.00 93 1013.3
20260905121523 72 41 0.9 4.3 0.00 0.00 0.00 94 1013.1
20260905120022 71 41 0.9 5.2 0.00 0.00 0.00 94 1013.1
20260905114535 71 41 0.9 5.2 0.00 0.00 0.00 96 1012.9
20260905113032 70 41 1.7 5.2 0.00 0.00 0.00 96 1012.7
20260905111524 70 41 1.7 5.2 0.00 0.00 0.00 96 1012.5
20260905110019 70 41 0.9 4.3 0.00 0.00 0.00 96 1012.3
20260905104522 70 41 0.0 2.6 0.00 0.00 0.00 96 1012.3